Location: North Runcton
(52.7000°N, 0.4333°E)
Time: 01:05:34
(UTC+00:00)

SL-16 R/B - Pass Details

Date: 19 May 2025
Orbit: 841 x 844 km, 71.0° (Epoch: 18 June)

Event Time Altitude Azimuth Distance (km) Brightness Sun altitude
Rises 20:55:07 0° 327° (NNW) 3,415 7.6 -7.6°
Reaches altitude 10° 20:58:06 10° 342° (NNW) 2,477 5.9 -7.9°
Maximum altitude 21:02:36 23° 34° (NE) 1,717 4.0 -8.3°
Drops below altitude 10° 21:07:04 10° 86° (E) 2,470 4.3 -8.7°
Enters shadow 21:09:29 - 99° (E) 3,219 4.8 -9.0°
